Location: Unspecified
(0.0000°N, 0.0000°E)
Time: 03:56:32
(UTC+00:00)

A-11 Canister half - Pass Details

Date: 18 April 2026
Orbit: 1523 x 1685 km, 47.3° (Epoch: 13 May)

Event Time Altitude Azimuth Distance (km) Brightness Sun altitude
Rises 08:12:33 0° 333° (NNW) 4,869 11.5 32.6°
Reaches altitude 10° 08:15:56 10° 339° (NNW) 3,863 11.1 33.4°
Maximum altitude 08:25:11 46° 50° (NE) 2,054 11.3 35.7°
Drops below altitude 10° 08:34:08 10° 120° (ESE) 3,750 11.8 37.9°
Sets 08:37:19 0° 126° (SE) 4,717 12.0 38.6°
